Time,TemperatureF,DewpointF,PressureIn,WindDirection,WindDirectionDegrees,WindSpeedMPH,WindSpeedGustMPH,Humidity,HourlyPrecipIn,Conditions,Clouds,dailyrainin,SolarRadiationWatts/m^2,SoftwareType,DateUTC
2013-02-07 00:00:00,59.5,57.5,29.89,South,173,5.0,9.0,93,0.00,,CLR,0.00,25.00,VWS V15.00,2013-02-07 06:00:00,
2013-02-07 00:02:00,59.5,57.5,29.89,SSW,194,5.0,6.0,93,0.00,,OVC020,0.00,25.00,VWS V14.01,2013-02-07 06:02:00,
2013-02-07 00:07:00,59.5,57.5,29.89,ESE,123,0.0,6.0,93,0.00,,OVC020,0.00,25.00,VWS V14.01,2013-02-07 06:07:00,
2013-02-07 00:10:00,59.6,57.6,29.89,ESE,116,5.0,9.0,93,0.00,,CLR,0.00,25.00,VWS V15.00,2013-02-07 06:10:00,
2013-02-07 00:12:00,59.6,57.6,29.89,South,173,2.0,7.0,93,0.00,,OVC020,0.00,25.00,VWS V14.01,2013-02-07 06:12:00,
2013-02-07 00:17:00,59.6,57.6,29.89,SSE,155,2.0,9.0,93,0.00,,OVC020,0.00,25.00,VWS V14.01,2013-02-07 06:17:00,
2013-02-07 00:20:00,59.6,57.6,29.89,ESE,120,5.0,10.0,93,0.00,,CLR,0.00,25.00,VWS V15.00,2013-02-07 06:20:00,
2013-02-07 00:22:00,59.6,57.6,29.89,SE,127,5.0,7.0,93,0.00,,OVC020,0.00,25.00,VWS V14.01,2013-02-07 06:22:00,
2013-02-07 00:27:00,59.6,57.6,29.89,SSE,152,5.0,7.0,93,0.00,,OVC020,0.00,25.00,VWS V14.01,2013-02-07 06:27:00,
2013-02-07 00:30:00,59.6,57.6,29.89,ESE,123,5.0,9.0,93,0.00,,CLR,0.00,25.00,VWS V15.00,2013-02-07 06:30:00,
2013-02-07 00:32:00,59.5,57.5,29.89,SSE,167,1.0,6.0,93,0.00,,OVC020,0.00,25.00,VWS V14.01,2013-02-07 06:32:00,
2013-02-07 00:37:00,59.4,57.4,29.89,ESE,123,4.0,8.0,93,0.00,,OVC020,0.00,25.00,VWS V14.01,2013-02-07 06:37:00,
2013-02-07 00:40:00,59.4,57.4,29.89,SSE,152,2.0,9.0,93,0.00,,CLR,0.00,25.00,VWS V15.00,2013-02-07 06:40:00,
2013-02-07 00:42:00,59.4,57.4,29.89,ESE,109,2.0,10.0,93,0.00,,OVC020,0.00,25.00,VWS V14.01,2013-02-07 06:42:00,
2013-02-07 00:47:00,59.2,57.2,29.89,SSE,161,3.0,10.0,93,0.00,,OVC020,0.00,25.00,VWS V14.01,2013-02-07 06:47:00,
2013-02-07 00:50:00,59.3,57.3,29.89,SSE,155,4.0,10.0,93,0.00,,CLR,0.00,25.00,VWS V15.00,2013-02-07 06:50:00,
2013-02-07 00:52:00,59.2,57.2,29.89,ESE,116,3.0,7.0,93,0.00,,OVC020,0.00,25.00,VWS V14.01,2013-02-07 06:52:00,
2013-02-07 00:57:00,59.2,57.2,29.89,East,98,5.0,9.0,93,0.00,,OVC020,0.00,25.00,VWS V14.01,2013-02-07 06:57:00,
2013-02-07 01:00:00,59.1,57.1,29.88,ESE,123,9.0,9.0,93,0.00,,CLR,0.00,25.00,VWS V15.00,2013-02-07 07:00:00,
2013-02-07 01:02:00,59.1,57.1,29.88,SSE,150,7.0,11.0,93,0.00,,OVC020,0.00,25.00,VWS V14.01,2013-02-07 07:02:00,
2013-02-07 01:07:00,59.0,57.0,29.88,SSE,150,2.0,11.0,93,0.00,,OVC020,0.00,25.00,VWS V14.01,2013-02-07 07:07:00,
2013-02-07 01:10:00,59.0,57.0,29.88,SE,128,3.0,11.0,93,0.00,,CLR,0.00,25.00,VWS V15.00,2013-02-07 07:10:00,
2013-02-07 01:12:00,58.9,56.9,29.88,SE,130,6.0,7.0,93,0.00,,OVC020,0.00,25.00,VWS V14.01,2013-02-07 07:12:00,
2013-02-07 01:18:00,58.8,56.8,29.88,SSE,168,1.0,7.0,93,0.00,,OVC020,0.00,25.00,VWS V14.01,2013-02-07 07:18:00,
2013-02-07 01:20:00,58.8,56.8,29.88,SSE,161,2.0,7.0,93,0.00,,CLR,0.00,25.00,VWS V15.00,2013-02-07 07:20:00,
2013-02-07 01:23:00,58.7,56.7,29.88,SSE,155,1.0,6.0,93,0.00,,OVC020,0.00,25.00,VWS V14.01,2013-02-07 07:23:00,
2013-02-07 01:28:00,58.7,56.7,29.88,South,183,2.0,6.0,93,0.00,,OVC020,0.00,25.00,VWS V14.01,2013-02-07 07:28:00,
2013-02-07 01:30:00,58.6,56.6,29.88,South,172,3.0,6.0,93,0.00,,CLR,0.00,25.00,VWS V15.00,2013-02-07 07:30:00,
2013-02-07 01:33:00,58.6,56.6,29.88,SSE,164,2.0,4.0,93,0.00,,OVC015,0.00,25.00,VWS V14.01,2013-02-07 07:33:00,
2013-02-07 01:38:00,58.5,56.2,29.88,SSE,152,4.0,6.0,92,0.00,,OVC015,0.00,25.00,VWS V14.01,2013-02-07 07:38:00,
2013-02-07 01:40:00,58.5,56.2,29.88,SSE,168,4.0,6.0,92,0.00,,CLR,0.00,25.00,VWS V15.00,2013-02-07 07:40:00,
2013-02-07 01:43:00,58.4,56.4,29.88,SSE,164,4.0,5.0,93,0.00,,OVC015,0.00,25.00,VWS V14.01,2013-02-07 07:43:00,
2013-02-07 01:48:00,58.4,56.1,29.89,South,169,4.0,6.0,92,0.00,,OVC015,0.00,25.00,VWS V14.01,2013-02-07 07:48:00,
2013-02-07 01:50:00,58.3,56.3,29.89,SSW,195,6.0,7.0,93,0.00,,CLR,0.00,25.00,VWS V15.00,2013-02-07 07:50:00,
2013-02-07 01:53:00,58.3,56.0,29.89,SSE,152,7.0,7.0,92,0.00,,OVC015,0.00,25.00,VWS V14.01,2013-02-07 07:53:00,
2013-02-07 01:58:00,58.3,56.0,29.89,South,175,5.0,7.0,92,0.00,,OVC015,0.00,25.00,VWS V14.01,2013-02-07 07:58:00,
2013-02-07 02:00:00,58.3,56.0,29.89,SSW,192,4.0,7.0,92,0.00,,CLR,0.00,25.00,VWS V15.00,2013-02-07 08:00:00,
2013-02-07 02:03:00,58.4,56.1,29.89,SSE,152,5.0,7.0,92,0.00,,OVC015,0.00,25.00,VWS V14.01,2013-02-07 08:03:00,
2013-02-07 02:08:00,58.5,56.2,29.89,South,171,6.0,7.0,92,0.00,,OVC015,0.00,25.00,VWS V14.01,2013-02-07 08:08:00,
2013-02-07 02:10:00,58.4,56.1,29.89,SE,145,4.0,7.0,92,0.00,,CLR,0.00,25.00,VWS V15.00,2013-02-07 08:10:00,
2013-02-07 02:13:00,58.4,56.1,29.89,ESE,114,5.0,7.0,92,0.00,,OVC015,0.00,25.00,VWS V14.01,2013-02-07 08:13:00,
2013-02-07 02:18:00,58.4,56.1,29.89,SSE,164,5.0,7.0,92,0.00,,OVC015,0.00,25.00,VWS V14.01,2013-02-07 08:18:00,
2013-02-07 02:20:00,58.4,56.1,29.89,SSE,155,3.0,7.0,92,0.00,,CLR,0.00,25.00,VWS V15.00,2013-02-07 08:20:00,
2013-02-07 02:23:00,58.3,56.0,29.89,SSE,149,3.0,4.0,92,0.00,,OVC015,0.00,25.00,VWS V14.01,2013-02-07 08:23:00,
2013-02-07 02:28:00,58.2,55.9,29.89,South,177,2.0,5.0,92,0.00,,OVC015,0.00,25.00,VWS V14.01,2013-02-07 08:28:00,
2013-02-07 02:30:00,58.2,55.9,29.89,South,172,5.0,5.0,92,0.00,,CLR,0.00,25.00,VWS V15.00,2013-02-07 08:30:00,
2013-02-07 02:33:00,58.2,55.9,29.89,South,187,4.0,7.0,92,0.00,,OVC015,0.00,25.00,VWS V14.01,2013-02-07 08:33:00,
2013-02-07 02:38:00,58.1,55.8,29.89,South,171,5.0,7.0,92,0.00,,OVC015,0.00,25.00,VWS V14.01,2013-02-07 08:38:00,
2013-02-07 02:40:00,58.1,55.8,29.89,SSE,167,3.0,7.0,92,0.00,,CLR,0.00,25.00,VWS V15.00,2013-02-07 08:40:00,
2013-02-07 02:43:00,58.0,55.7,29.89,South,169,4.0,6.0,92,0.00,,OVC015,0.00,25.00,VWS V14.01,2013-02-07 08:43:00,
2013-02-07 02:49:00,58.0,55.7,29.88,South,182,6.0,7.0,92,0.00,,OVC015,0.00,25.00,VWS V14.01,2013-02-07 08:49:00,
2013-02-07 02:50:00,57.9,55.6,29.88,South,185,4.0,7.0,92,0.00,,CLR,0.00,25.00,VWS V15.00,2013-02-07 08:50:00,
2013-02-07 02:54:00,57.9,55.9,29.88,SSE,160,5.0,7.0,93,0.00,,OVC015,0.00,25.00,VWS V14.01,2013-02-07 08:54:00,
2013-02-07 02:59:00,57.9,55.9,29.88,South,187,3.0,7.0,93,0.00,,OVC015,0.00,25.00,VWS V14.01,2013-02-07 08:59:00,
2013-02-07 03:00:00,57.9,55.9,29.88,South,177,3.0,7.0,93,0.00,,CLR,0.00,25.00,VWS V15.00,2013-02-07 09:00:00,
2013-02-07 03:04:00,57.9,55.9,29.88,South,183,3.0,7.0,93,0.00,,OVC015,0.00,25.00,VWS V14.01,2013-02-07 09:04:00,
2013-02-07 03:09:00,57.9,55.9,29.88,SE,129,3.0,7.0,93,0.00,,OVC015,0.00,25.00,VWS V14.01,2013-02-07 09:09:00,
2013-02-07 03:10:00,57.9,55.9,29.88,SSE,167,3.0,7.0,93,0.00,,CLR,0.00,25.00,VWS V15.00,2013-02-07 09:10:00,
2013-02-07 03:14:00,57.8,55.8,29.88,SSE,147,2.0,3.0,93,0.00,,OVC015,0.00,25.00,VWS V14.01,2013-02-07 09:14:00,
2013-02-07 03:19:00,57.8,55.8,29.88,ESE,120,4.0,7.0,93,0.00,,OVC015,0.00,25.00,VWS V14.01,2013-02-07 09:19:00,
2013-02-07 03:20:00,57.8,55.8,29.88,SSE,148,3.0,7.0,93,0.00,,CLR,0.00,25.00,VWS V15.00,2013-02-07 09:20:00,
2013-02-07 03:24:00,57.8,55.8,29.88,SE,146,3.0,9.0,93,0.00,,OVC015,0.00,25.00,VWS V14.01,2013-02-07 09:24:00,
2013-02-07 03:29:00,57.7,56.0,29.87,SSE,147,2.0,11.0,94,0.00,,OVC015,0.00,25.00,VWS V14.01,2013-02-07 09:29:00,
2013-02-07 03:30:00,57.7,56.0,29.87,SE,144,5.0,11.0,94,0.00,,CLR,0.00,25.00,VWS V15.00,2013-02-07 09:30:00,
2013-02-07 03:34:00,57.7,55.7,29.87,SSE,148,3.0,6.0,93,0.00,,OVC024,0.00,25.00,VWS V14.01,2013-02-07 09:34:00,
2013-02-07 03:39:00,57.5,55.5,29.87,SSE,150,5.0,8.0,93,0.00,,OVC024,0.00,25.00,VWS V14.01,2013-02-07 09:39:00,
2013-02-07 03:40:00,57.4,55.4,29.87,SE,136,4.0,8.0,93,0.00,,CLR,0.00,25.00,VWS V15.00,2013-02-07 09:40:00,
2013-02-07 03:44:00,57.3,55.6,29.86,SE,144,3.0,4.0,94,0.00,,OVC024,0.00,25.00,VWS V14.01,2013-02-07 09:44:00,
2013-02-07 03:49:00,57.2,55.5,29.86,SE,126,2.0,4.0,94,0.00,,OVC024,0.00,25.00,VWS V14.01,2013-02-07 09:49:00,
2013-02-07 03:50:00,57.2,55.5,29.86,SE,134,2.0,4.0,94,0.00,,CLR,0.00,25.00,VWS V15.00,2013-02-07 09:50:00,
2013-02-07 03:54:00,57.2,55.5,29.86,SSE,157,1.0,3.0,94,0.00,,OVC024,0.00,25.00,VWS V14.01,2013-02-07 09:54:00,
2013-02-07 03:59:00,57.2,55.5,29.86,SE,127,3.0,9.0,94,0.00,,OVC024,0.00,25.00,VWS V14.01,2013-02-07 09:59:00,
2013-02-07 04:00:00,57.2,55.5,29.86,SSW,198,1.0,9.0,94,0.00,,CLR,0.00,25.00,VWS V15.00,2013-02-07 10:00:00,
2013-02-07 04:04:00,57.2,55.5,29.86,ESE,112,4.0,6.0,94,0.00,,OVC024,0.00,25.00,VWS V14.01,2013-02-07 10:04:00,
2013-02-07 04:09:00,57.1,55.4,29.86,SSW,194,2.0,7.0,94,0.00,,OVC024,0.00,25.00,VWS V14.01,2013-02-07 10:09:00,
2013-02-07 04:10:00,57.1,55.4,29.86,ESE,118,9.0,9.0,94,0.00,,CLR,0.00,25.00,VWS V15.00,2013-02-07 10:10:00,
2013-02-07 04:14:00,57.0,55.3,29.86,SE,141,3.0,9.0,94,0.00,,OVC024,0.00,25.00,VWS V14.01,2013-02-07 10:14:00,
2013-02-07 04:19:00,56.9,55.2,29.86,ESE,117,4.0,9.0,94,0.00,,OVC024,0.00,25.00,VWS V14.01,2013-02-07 10:19:00,
2013-02-07 04:20:00,56.9,55.2,29.86,SSE,152,3.0,9.0,94,0.00,,CLR,0.00,25.00,VWS V15.00,2013-02-07 10:20:00,
2013-02-07 04:24:00,56.9,55.2,29.86,SSE,147,4.0,9.0,94,0.00,,OVC024,0.00,25.00,VWS V14.01,2013-02-07 10:24:00,
2013-02-07 04:29:00,56.9,55.2,29.85,SE,130,2.0,9.0,94,0.00,,OVC024,0.00,25.00,VWS V14.01,2013-02-07 10:29:00,
2013-02-07 04:30:00,56.9,55.2,29.85,SE,136,3.0,9.0,94,0.00,,CLR,0.00,25.00,VWS V15.00,2013-02-07 10:30:00,
2013-02-07 04:34:00,56.8,55.1,29.85,South,175,2.0,4.0,94,0.00,,OVC022,0.00,25.00,VWS V14.01,2013-02-07 10:34:00,
2013-02-07 04:39:00,56.8,55.1,29.85,SSE,153,2.0,4.0,94,0.00,,OVC022,0.00,25.00,VWS V14.01,2013-02-07 10:39:00,
2013-02-07 04:40:00,56.8,55.1,29.85,SSE,152,2.0,4.0,94,0.00,,CLR,0.00,25.00,VWS V15.00,2013-02-07 10:40:00,
2013-02-07 04:44:00,56.7,55.0,29.85,SSE,152,3.0,5.0,94,0.00,,OVC022,0.00,25.00,VWS V14.01,2013-02-07 10:44:00,
2013-02-07 04:49:00,56.8,55.4,29.85,SSE,152,2.0,6.0,95,0.00,,OVC022,0.00,25.00,VWS V14.01,2013-02-07 10:49:00,
2013-02-07 04:50:00,56.8,55.4,29.85,SSW,192,2.0,6.0,95,0.00,,CLR,0.00,25.00,VWS V15.00,2013-02-07 10:50:00,
2013-02-07 04:54:00,56.8,55.4,29.85,South,186,4.0,6.0,95,0.00,,OVC022,0.00,25.00,VWS V14.01,2013-02-07 10:54:00,
2013-02-07 04:59:00,56.8,55.4,29.85,SSE,164,2.0,6.0,95,0.00,,OVC022,0.00,25.00,VWS V14.01,2013-02-07 10:59:00,
2013-02-07 05:00:00,56.8,55.4,29.85,South,180,4.0,6.0,95,0.00,,CLR,0.00,25.00,VWS V15.00,2013-02-07 11:00:00,
2013-02-07 05:04:00,56.8,55.4,29.85,South,190,1.0,6.0,95,0.00,,OVC022,0.00,25.00,VWS V14.01,2013-02-07 11:04:00,
2013-02-07 05:09:00,56.9,55.5,29.85,SSE,167,3.0,6.0,95,0.00,,OVC022,0.00,25.00,VWS V14.01,2013-02-07 11:09:00,
2013-02-07 05:10:00,56.9,55.5,29.85,South,175,3.0,6.0,95,0.00,,CLR,0.00,25.00,VWS V15.00,2013-02-07 11:10:00,
2013-02-07 05:14:00,56.9,55.5,29.85,ESE,119,5.0,5.0,95,0.00,,OVC022,0.00,25.00,VWS V14.01,2013-02-07 11:14:00,
2013-02-07 05:19:00,56.9,55.5,29.85,South,169,3.0,6.0,95,0.00,,OVC022,0.00,25.00,VWS V14.01,2013-02-07 11:19:00,
2013-02-07 05:20:00,56.9,55.5,29.85,SE,146,2.0,6.0,95,0.00,,CLR,0.00,25.00,VWS V15.00,2013-02-07 11:20:00,
2013-02-07 05:24:00,56.9,55.5,29.85,South,188,5.0,5.0,95,0.00,,OVC022,0.00,25.00,VWS V14.01,2013-02-07 11:24:00,
2013-02-07 05:29:00,57.0,55.6,29.86,South,184,2.0,5.0,95,0.00,,OVC022,0.00,25.00,VWS V14.01,2013-02-07 11:29:00,
2013-02-07 05:30:00,57.0,55.6,29.86,SE,144,4.0,5.0,95,0.00,,CLR,0.00,25.00,VWS V15.00,2013-02-07 11:30:00,
2013-02-07 05:34:00,57.0,55.6,29.86,South,171,3.0,5.0,95,0.00,,OVC015,0.00,25.00,VWS V14.01,2013-02-07 11:34:00,
2013-02-07 05:39:00,57.1,55.7,29.86,SE,136,3.0,6.0,95,0.00,,OVC015,0.00,25.00,VWS V14.01,2013-02-07 11:39:00,
2013-02-07 05:40:00,57.1,55.7,29.86,SE,141,5.0,6.0,95,0.00,,CLR,0.00,25.00,VWS V15.00,2013-02-07 11:40:00,
2013-02-07 05:44:00,57.2,55.8,29.85,South,170,3.0,5.0,95,0.00,,OVC015,0.00,25.00,VWS V14.01,2013-02-07 11:44:00,
2013-02-07 05:49:00,57.2,55.8,29.85,SSE,157,4.0,5.0,95,0.00,,OVC015,0.00,25.00,VWS V14.01,2013-02-07 11:49:00,
2013-02-07 05:50:00,57.2,55.8,29.85,SSE,157,4.0,5.0,95,0.00,,CLR,0.00,25.00,VWS V15.00,2013-02-07 11:50:00,
2013-02-07 05:54:00,57.2,55.8,29.85,South,171,3.0,6.0,95,0.00,,OVC015,0.00,25.00,VWS V14.01,2013-02-07 11:54:00,
2013-02-07 05:59:00,57.2,55.8,29.86,SSE,150,3.0,6.0,95,0.00,,OVC015,0.00,25.00,VWS V14.01,2013-02-07 11:59:00,
2013-02-07 06:00:00,57.2,55.8,29.86,South,174,2.0,6.0,95,0.00,,CLR,0.00,25.00,VWS V15.00,2013-02-07 12:00:00,
2013-02-07 06:04:00,57.2,55.8,29.86,SSW,203,4.0,7.0,95,0.00,,OVC015,0.00,25.00,VWS V14.01,2013-02-07 12:04:00,
2013-02-07 06:09:00,57.3,55.9,29.86,SE,130,4.0,7.0,95,0.00,,OVC015,0.00,25.00,VWS V14.01,2013-02-07 12:09:00,
2013-02-07 06:10:00,57.3,55.9,29.86,SSE,157,5.0,7.0,95,0.00,,CLR,0.00,25.00,VWS V15.00,2013-02-07 12:10:00,
2013-02-07 06:14:00,57.3,55.9,29.86,South,169,2.0,7.0,95,0.00,,OVC015,0.00,25.00,VWS V14.01,2013-02-07 12:14:00,
2013-02-07 06:19:00,57.3,55.9,29.86,South,178,3.0,7.0,95,0.00,,OVC015,0.00,25.00,VWS V14.01,2013-02-07 12:19:00,
2013-02-07 06:20:00,57.3,55.9,29.86,South,180,3.0,7.0,95,0.00,,CLR,0.00,25.00,VWS V15.00,2013-02-07 12:20:00,
2013-02-07 06:24:00,57.3,55.9,29.86,South,172,6.0,7.0,95,0.00,,OVC015,0.00,25.00,VWS V14.01,2013-02-07 12:24:00,
2013-02-07 06:29:00,57.3,55.9,29.86,South,190,3.0,7.0,95,0.00,,OVC015,0.00,25.00,VWS V14.01,2013-02-07 12:29:00,
2013-02-07 06:30:00,57.3,55.9,29.86,SSW,200,3.0,7.0,95,0.00,,CLR,0.00,25.00,VWS V15.00,2013-02-07 12:30:00,
2013-02-07 06:34:00,57.4,56.3,29.86,SE,146,5.0,7.0,96,0.00,,,0.00,25.00,VWS V14.01,2013-02-07 12:34:00,
2013-02-07 06:39:00,57.5,56.4,29.86,South,172,4.0,7.0,96,0.00,,,0.00,25.00,VWS V14.01,2013-02-07 12:39:00,
2013-02-07 06:40:00,57.5,56.4,29.86,South,183,3.0,7.0,96,0.00,,CLR,0.00,25.00,VWS V15.00,2013-02-07 12:40:00,
2013-02-07 06:44:00,57.5,56.4,29.87,SSE,164,7.0,7.0,96,0.00,,,0.00,25.00,VWS V14.01,2013-02-07 12:44:00,
2013-02-07 06:49:00,57.6,56.5,29.87,South,173,5.0,7.0,96,0.00,,,0.00,25.00,VWS V14.01,2013-02-07 12:49:00,
2013-02-07 06:50:00,57.6,56.5,29.87,South,183,3.0,7.0,96,0.00,,CLR,0.00,25.00,VWS V15.00,2013-02-07 12:50:00,
2013-02-07 06:54:00,57.6,56.2,29.87,SSE,157,2.0,5.0,95,0.00,,,0.00,25.00,VWS V14.01,2013-02-07 12:54:00,
2013-02-07 06:59:00,57.5,56.1,29.87,South,182,2.0,5.0,95,0.00,,,0.00,25.00,VWS V14.01,2013-02-07 12:59:00,
2013-02-07 07:00:00,57.5,56.1,29.87,South,182,2.0,5.0,95,0.00,,CLR,0.00,25.00,VWS V15.00,2013-02-07 13:00:00,
2013-02-07 07:04:00,57.5,56.4,29.87,SSE,159,3.0,5.0,96,0.00,,,0.00,25.00,VWS V14.01,2013-02-07 13:04:00,
2013-02-07 07:09:00,57.5,56.4,29.87,SSE,157,3.0,5.0,96,0.00,,,0.00,25.00,VWS V14.01,2013-02-07 13:09:00,
2013-02-07 07:10:00,57.5,56.4,29.87,SSE,150,3.0,5.0,96,0.00,,CLR,0.00,25.00,VWS V15.00,2013-02-07 13:10:00,
2013-02-07 07:14:00,57.5,56.4,29.87,SSE,155,3.0,6.0,96,0.00,,,0.00,25.00,VWS V14.01,2013-02-07 13:14:00,
2013-02-07 07:19:00,57.5,56.4,29.87,SE,143,2.0,6.0,96,0.00,,,0.00,25.00,VWS V14.01,2013-02-07 13:19:00,
2013-02-07 07:20:00,57.5,56.4,29.87,South,186,3.0,6.0,96,0.00,,CLR,0.00,25.00,VWS V15.00,2013-02-07 13:20:00,
2013-02-07 07:24:00,57.6,56.5,29.87,SSE,167,3.0,6.0,96,0.00,,,0.00,25.00,VWS V14.01,2013-02-07 13:24:00,
2013-02-07 07:29:00,57.6,56.5,29.87,South,176,4.0,6.0,96,0.00,,,0.00,25.00,VWS V14.01,2013-02-07 13:29:00,
2013-02-07 07:30:00,57.6,56.5,29.87,South,176,4.0,6.0,96,0.00,,CLR,0.00,25.00,VWS V15.00,2013-02-07 13:30:00,
2013-02-07 07:34:00,57.5,56.4,29.87,SSE,165,6.0,6.0,96,0.00,,OVC012,0.00,25.00,VWS V14.01,2013-02-07 13:34:00,
2013-02-07 07:39:00,57.4,56.3,29.87,South,171,5.0,6.0,96,0.00,,OVC012,0.00,25.00,VWS V14.01,2013-02-07 13:39:00,
2013-02-07 07:40:00,57.4,56.3,29.87,SSE,167,7.0,7.0,96,0.00,,CLR,0.00,25.00,VWS V15.00,2013-02-07 13:40:00,
2013-02-07 07:44:00,57.3,56.2,29.87,SSE,155,5.0,7.0,96,0.00,,OVC012,0.00,25.00,VWS V14.01,2013-02-07 13:44:00,
2013-02-07 07:49:00,57.2,56.4,29.87,SE,125,5.0,7.0,97,0.00,,OVC012,0.00,25.00,VWS V14.01,2013-02-07 13:49:00,
2013-02-07 07:50:00,57.2,56.4,29.87,South,170,5.0,7.0,97,0.00,,CLR,0.00,25.00,VWS V15.00,2013-02-07 13:50:00,
2013-02-07 07:54:00,57.3,56.5,29.87,SSW,196,3.0,7.0,97,0.00,,OVC012,0.00,25.00,VWS V14.01,2013-02-07 13:54:00,
2013-02-07 07:59:00,57.3,56.5,29.87,South,172,4.0,7.0,97,0.00,,OVC012,0.00,25.00,VWS V14.01,2013-02-07 13:59:00,
2013-02-07 08:00:00,57.3,56.5,29.87,South,172,4.0,7.0,97,0.00,,CLR,0.00,25.00,VWS V15.00,2013-02-07 14:00:00,
2013-02-07 08:04:00,57.3,56.5,29.87,SSE,167,2.0,5.0,97,0.00,,OVC012,0.00,25.00,VWS V14.01,2013-02-07 14:04:00,
2013-02-07 08:09:00,57.3,56.5,29.87,SSE,152,3.0,5.0,97,0.00,,OVC012,0.00,25.00,VWS V14.01,2013-02-07 14:09:00,
2013-02-07 08:10:00,57.3,56.5,29.87,SSE,152,3.0,5.0,97,0.00,,CLR,0.00,25.00,VWS V15.00,2013-02-07 14:10:00,
2013-02-07 08:14:00,57.3,56.5,29.87,SSE,155,2.0,5.0,97,0.00,,OVC012,0.00,25.00,VWS V14.01,2013-02-07 14:14:00,
2013-02-07 08:19:00,57.2,56.4,29.87,SSE,153,3.0,5.0,97,0.00,,OVC012,0.00,25.00,VWS V14.01,2013-02-07 14:19:00,
2013-02-07 08:20:00,57.2,56.4,29.87,SSE,153,3.0,5.0,97,0.00,,CLR,0.00,25.00,VWS V15.00,2013-02-07 14:20:00,
2013-02-07 08:24:00,57.2,56.4,29.87,SSE,149,4.0,6.0,97,0.00,,OVC012,0.00,25.00,VWS V14.01,2013-02-07 14:24:00,
2013-02-07 08:29:00,57.2,56.4,29.88,SSE,152,3.0,6.0,97,0.00,,OVC012,0.00,25.00,VWS V14.01,2013-02-07 14:29:00,
2013-02-07 08:30:00,57.2,56.4,29.88,SSE,152,3.0,6.0,97,0.00,,CLR,0.00,25.00,VWS V15.00,2013-02-07 14:30:00,
2013-02-07 08:35:00,57.4,56.6,29.88,SSE,159,3.0,9.0,97,0.00,,,0.00,25.00,VWS V14.01,2013-02-07 14:35:00,
2013-02-07 08:40:00,57.6,56.8,29.88,ESE,114,6.0,6.0,97,0.00,,,0.00,25.00,VWS V14.01,2013-02-07 14:40:00,
2013-02-07 08:45:00,57.7,56.9,29.87,SSE,155,3.0,6.0,97,0.00,,,0.00,25.00,VWS V14.01,2013-02-07 14:45:00,
2013-02-07 08:50:00,57.6,56.8,29.87,SSE,153,6.0,6.0,97,0.00,,,0.00,25.00,VWS V14.01,2013-02-07 14:50:00,
2013-02-07 08:55:00,57.7,56.9,29.87,South,179,3.0,6.0,97,0.00,,,0.00,25.00,VWS V14.01,2013-02-07 14:55:00,
2013-02-07 09:00:00,57.7,56.9,29.88,SSE,161,7.0,10.0,97,0.00,,,0.00,25.00,VWS V14.01,2013-02-07 15:00:00,
2013-02-07 09:05:00,57.9,57.1,29.88,SSW,205,6.0,10.0,97,0.00,,,0.00,25.00,VWS V14.01,2013-02-07 15:05:00,
2013-02-07 09:10:00,58.0,57.2,29.88,SSW,194,4.0,6.0,97,0.00,,,0.00,25.00,VWS V14.01,2013-02-07 15:10:00,
2013-02-07 09:15:00,58.1,57.3,29.88,South,180,4.0,7.0,97,0.00,,,0.00,25.00,VWS V14.01,2013-02-07 15:15:00,
2013-02-07 09:20:00,58.2,57.4,29.88,SE,134,3.0,5.0,97,0.00,,,0.00,25.00,VWS V14.01,2013-02-07 15:20:00,
2013-02-07 09:25:00,58.3,57.5,29.88,ESE,123,5.0,7.0,97,0.00,,,0.00,25.00,VWS V14.01,2013-02-07 15:25:00,
2013-02-07 09:30:00,58.3,57.5,29.88,South,176,5.0,6.0,97,0.00,,,0.00,25.00,VWS V14.01,2013-02-07 15:30:00,
2013-02-07 09:35:00,58.2,57.1,29.88,SSE,152,5.0,9.0,96,0.00,,,0.00,25.00,VWS V14.01,2013-02-07 15:35:00,
2013-02-07 09:40:00,58.3,57.2,29.88,SSE,155,4.0,5.0,96,0.00,,,0.00,25.00,VWS V14.01,2013-02-07 15:40:00,
2013-02-07 09:45:00,58.5,57.4,29.86,South,172,4.0,7.0,96,0.00,,,0.00,25.00,VWS V14.01,2013-02-07 15:45:00,
2013-02-07 09:50:00,58.8,57.7,29.86,South,172,2.0,3.0,96,0.00,,FEW022,0.00,25.00,VWS V14.01,2013-02-07 15:50:00,
2013-02-07 09:55:00,59.1,58.0,29.86,SSE,161,7.0,7.0,96,0.00,,FEW022,0.00,25.00,VWS V14.01,2013-02-07 15:55:00,
2013-02-07 10:00:00,59.1,57.7,29.86,South,185,5.0,6.0,95,0.00,,FEW022,0.00,25.00,VWS V14.01,2013-02-07 16:00:00,
2013-02-07 10:05:00,59.4,58.0,29.86,SSE,155,4.0,6.0,95,0.00,,FEW022,0.00,25.00,VWS V14.01,2013-02-07 16:05:00,
2013-02-07 10:10:00,59.6,58.2,29.86,South,175,4.0,7.0,95,0.00,,FEW022,0.00,25.00,VWS V14.01,2013-02-07 16:10:00,
2013-02-07 10:15:00,59.9,58.2,29.86,SSE,164,7.0,7.0,94,0.00,,FEW022,0.00,25.00,VWS V14.01,2013-02-07 16:15:00,
2013-02-07 10:20:00,59.9,57.9,29.86,SSE,157,5.0,6.0,93,0.00,,FEW022,0.00,25.00,VWS V14.01,2013-02-07 16:20:00,
2013-02-07 10:25:00,60.0,58.0,29.86,South,175,3.0,9.0,93,0.00,,FEW022,0.00,25.00,VWS V14.01,2013-02-07 16:25:00,
2013-02-07 10:30:00,60.1,58.1,29.86,South,191,5.0,7.0,93,0.00,,FEW022,0.00,25.00,VWS V14.01,2013-02-07 16:30:00,
2013-02-07 10:35:00,60.7,58.7,29.86,SSE,160,9.0,11.0,93,0.00,,BKN025,0.00,25.00,VWS V14.01,2013-02-07 16:35:00,
2013-02-07 10:40:00,61.1,58.5,29.86,SSW,198,4.0,6.0,91,0.00,,BKN025,0.00,25.00,VWS V14.01,2013-02-07 16:40:00,
2013-02-07 10:46:00,61.4,58.8,29.87,South,169,5.0,10.0,91,0.00,,BKN025,0.00,25.00,VWS V14.01,2013-02-07 16:46:00,
2013-02-07 10:50:00,61.6,58.6,29.87,SSE,157,5.0,10.0,90,0.00,,CLR,0.00,25.00,VWS V15.00,2013-02-07 16:50:00,
2013-02-07 10:52:00,61.7,58.7,29.87,South,172,6.0,8.0,90,0.00,,BKN025,0.00,25.00,VWS V14.01,2013-02-07 16:52:00,
2013-02-07 10:56:00,62.0,58.7,29.87,ESE,107,4.0,9.0,89,0.00,,BKN025,0.00,25.00,VWS V14.01,2013-02-07 16:56:00,
2013-02-07 11:00:00,62.1,58.8,29.86,SE,136,7.0,10.0,89,0.00,,CLR,0.00,25.00,VWS V15.00,2013-02-07 17:00:00,
2013-02-07 11:01:00,62.2,58.9,29.86,ESE,111,7.0,9.0,89,0.00,,BKN025,0.00,25.00,VWS V14.01,2013-02-07 17:01:00,
2013-02-07 11:06:00,62.5,58.9,29.86,SSE,157,4.0,9.0,88,0.00,,BKN025,0.00,25.00,VWS V14.01,2013-02-07 17:06:00,
2013-02-07 11:10:00,62.6,59.0,29.86,SSE,157,3.0,9.0,88,0.00,,CLR,0.00,25.00,VWS V15.00,2013-02-07 17:10:00,
2013-02-07 11:11:00,62.8,58.9,29.86,SSE,165,5.0,7.0,87,0.00,,BKN025,0.00,25.00,VWS V14.01,2013-02-07 17:11:00,
2013-02-07 11:16:00,63.0,58.8,29.86,SE,136,5.0,9.0,86,0.00,,BKN025,0.00,25.00,VWS V14.01,2013-02-07 17:16:00,
2013-02-07 11:20:00,63.2,59.0,29.86,South,178,5.0,9.0,86,0.00,,CLR,0.00,25.00,VWS V15.00,2013-02-07 17:20:00,
2013-02-07 11:21:00,63.4,59.2,29.86,South,175,7.0,12.0,86,0.00,,BKN025,0.00,25.00,VWS V14.01,2013-02-07 17:21:00,
2013-02-07 11:26:00,63.8,59.2,29.86,SE,134,3.0,12.0,85,0.00,,BKN025,0.00,25.00,VWS V14.01,2013-02-07 17:26:00,
2013-02-07 11:30:00,63.8,58.9,29.86,SE,134,3.0,12.0,84,0.00,,CLR,0.00,25.00,VWS V15.00,2013-02-07 17:30:00,
2013-02-07 11:31:00,63.7,58.8,29.86,SSE,149,5.0,5.0,84,0.00,,BKN025,0.00,25.00,VWS V14.01,2013-02-07 17:31:00,
2013-02-07 11:36:00,63.7,59.1,29.86,SSE,155,5.0,10.0,85,0.00,,BKN025,0.00,25.00,VWS V14.01,2013-02-07 17:36:00,
2013-02-07 11:40:00,64.3,59.4,29.86,South,184,4.0,10.0,84,0.00,,CLR,0.00,25.00,VWS V15.00,2013-02-07 17:40:00,
2013-02-07 11:42:00,64.7,59.4,29.86,SSE,161,7.0,11.0,83,0.00,,BKN025,0.00,25.00,VWS V14.01,2013-02-07 17:42:00,
2013-02-07 11:47:00,65.3,59.7,29.85,SSW,192,5.0,11.0,82,0.00,,BKN025,0.00,25.00,VWS V14.01,2013-02-07 17:47:00,
2013-02-07 11:50:00,65.4,59.4,29.85,South,178,6.0,11.0,81,0.00,,CLR,0.00,25.00,VWS V15.00,2013-02-07 17:50:00,
2013-02-07 11:52:00,65.7,59.7,29.85,SSW,197,6.0,12.0,81,0.00,,BKN025,0.00,25.00,VWS V14.01,2013-02-07 17:52:00,
2013-02-07 11:57:00,66.4,59.7,29.85,SSW,200,8.0,13.0,79,0.00,,BKN025,0.00,25.00,VWS V14.01,2013-02-07 17:57:00,
2013-02-07 12:00:00,66.4,59.7,29.85,SSE,149,8.0,13.0,79,0.00,,CLR,0.00,25.00,VWS V15.00,2013-02-07 18:00:00,
2013-02-07 12:02:00,66.3,59.6,29.85,SE,145,6.0,8.0,79,0.00,,BKN025,0.00,25.00,VWS V14.01,2013-02-07 18:02:00,
2013-02-07 12:07:00,66.4,59.7,29.85,SSE,149,7.0,11.0,79,0.00,,BKN025,0.00,25.00,VWS V14.01,2013-02-07 18:07:00,
2013-02-07 12:10:00,66.2,59.2,29.85,SE,136,6.0,11.0,78,0.00,,CLR,0.00,25.00,VWS V15.00,2013-02-07 18:10:00,
2013-02-07 12:12:00,66.0,59.3,29.85,SSE,155,10.0,12.0,79,0.00,,BKN025,0.00,25.00,VWS V14.01,2013-02-07 18:12:00,
2013-02-07 12:17:00,66.0,59.7,29.84,South,186,10.0,12.0,80,0.00,,BKN025,0.00,25.00,VWS V14.01,2013-02-07 18:17:00,
2013-02-07 12:20:00,66.4,59.7,29.84,SSW,205,6.0,12.0,79,0.00,,CLR,0.00,25.00,VWS V15.00,2013-02-07 18:20:00,
2013-02-07 12:22:00,66.7,60.0,29.84,South,180,4.0,10.0,79,0.00,,BKN025,0.00,25.00,VWS V14.01,2013-02-07 18:22:00,
2013-02-07 12:27:00,67.0,59.9,29.84,South,188,9.0,11.0,78,0.00,,BKN025,0.00,25.00,VWS V14.01,2013-02-07 18:27:00,
2013-02-07 12:30:00,67.1,59.7,29.83,ESE,110,11.0,12.0,77,0.00,,CLR,0.00,25.00,VWS V15.00,2013-02-07 18:30:00,
2013-02-07 12:32:00,67.1,59.7,29.83,South,191,4.0,11.0,77,0.00,,BKN025,0.00,25.00,VWS V14.01,2013-02-07 18:32:00,
2013-02-07 12:37:00,67.5,60.0,29.83,SE,130,5.0,11.0,77,0.00,,SCT110,0.00,25.00,VWS V14.01,2013-02-07 18:37:00,
2013-02-07 12:40:00,67.6,59.8,29.83,South,180,3.0,11.0,76,0.00,,CLR,0.00,25.00,VWS V15.00,2013-02-07 18:40:00,
2013-02-07 12:42:00,67.5,59.7,29.83,SSE,152,9.0,11.0,76,0.00,,SCT110,0.00,25.00,VWS V14.01,2013-02-07 18:42:00,
2013-02-07 12:47:00,67.8,60.0,29.82,SSW,200,5.0,12.0,76,0.00,,SCT110,0.00,25.00,VWS V14.01,2013-02-07 18:47:00,
2013-02-07 12:50:00,68.1,59.9,29.82,SSE,164,7.0,13.0,75,0.00,,CLR,0.00,25.00,VWS V15.00,2013-02-07 18:50:00,
2013-02-07 12:52:00,68.2,60.0,29.82,SW,215,4.0,8.0,75,0.00,,SCT110,0.00,25.00,VWS V14.01,2013-02-07 18:52:00,
2013-02-07 12:57:00,68.5,60.3,29.82,East,93,4.0,9.0,75,0.00,,SCT110,0.00,25.00,VWS V14.01,2013-02-07 18:57:00,
2013-02-07 13:00:00,69.0,60.8,29.81,SSW,194,2.0,9.0,75,0.00,,CLR,0.00,25.00,VWS V15.00,2013-02-07 19:00:00,
2013-02-07 13:02:00,69.6,60.6,29.81,SSE,148,8.0,13.0,73,0.00,,SCT110,0.00,25.00,VWS V14.01,2013-02-07 19:02:00,
2013-02-07 13:07:00,70.8,60.9,29.81,South,186,7.0,13.0,71,0.00,,SCT110,0.00,25.00,VWS V14.01,2013-02-07 19:07:00,
2013-02-07 13:10:00,71.2,60.9,29.81,South,169,6.0,13.0,70,0.00,,CLR,0.00,25.00,VWS V15.00,2013-02-07 19:10:00,
2013-02-07 13:12:00,71.3,60.6,29.81,South,182,9.0,10.0,69,0.00,,SCT110,0.00,25.00,VWS V14.01,2013-02-07 19:12:00,
2013-02-07 13:17:00,71.5,60.8,29.80,SE,140,10.0,10.0,69,0.00,,SCT110,0.00,25.00,VWS V14.01,2013-02-07 19:17:00,
2013-02-07 13:22:00,71.9,60.8,29.80,SSE,161,6.0,10.0,68,0.00,,SCT110,0.00,25.00,VWS V14.01,2013-02-07 19:22:00,
2013-02-07 13:27:00,72.0,60.5,29.80,SSE,160,10.0,12.0,67,0.00,,SCT110,0.00,25.00,VWS V14.01,2013-02-07 19:27:00,
2013-02-07 13:30:00,72.0,60.5,29.79,SSE,155,8.0,12.0,67,0.00,,CLR,0.00,25.00,VWS V15.00,2013-02-07 19:30:00,
2013-02-07 13:32:00,72.0,60.5,29.79,SSW,195,5.0,12.0,67,0.00,,SCT110,0.00,25.00,VWS V14.01,2013-02-07 19:32:00,
2013-02-07 13:37:00,72.4,60.8,29.79,South,172,5.0,12.0,67,0.00,,SCT100,0.00,25.00,VWS V14.01,2013-02-07 19:37:00,
2013-02-07 13:40:00,72.9,60.9,29.79,SSW,207,6.0,12.0,66,0.00,,CLR,0.00,25.00,VWS V15.00,2013-02-07 19:40:00,
2013-02-07 13:42:00,73.3,60.8,29.79,SSE,162,6.0,7.0,65,0.00,,SCT100,0.00,25.00,VWS V14.01,2013-02-07 19:42:00,
2013-02-07 13:47:00,73.2,60.3,29.78,South,180,5.0,10.0,64,0.00,,SCT100,0.00,25.00,VWS V14.01,2013-02-07 19:47:00,
2013-02-07 13:50:00,73.4,60.5,29.78,South,186,6.0,10.0,64,0.00,,CLR,0.00,25.00,VWS V15.00,2013-02-07 19:50:00,
2013-02-07 13:52:00,73.7,60.8,29.78,South,180,4.0,9.0,64,0.00,,SCT100,0.00,25.00,VWS V14.01,2013-02-07 19:52:00,
2013-02-07 13:57:00,74.4,61.0,29.78,SE,142,8.0,11.0,63,0.00,,SCT100,0.00,25.00,VWS V14.01,2013-02-07 19:57:00,
2013-02-07 14:00:00,74.7,60.8,29.78,SSE,164,5.0,11.0,62,0.00,,CLR,0.00,25.00,VWS V15.00,2013-02-07 20:00:00,
2013-02-07 14:02:00,75.0,60.7,29.78,SSE,148,4.0,11.0,61,0.00,,SCT100,0.00,25.00,VWS V14.01,2013-02-07 20:02:00,
2013-02-07 14:07:00,75.7,60.8,29.78,SSE,160,5.0,12.0,60,0.00,,SCT100,0.00,25.00,VWS V14.01,2013-02-07 20:07:00,
2013-02-07 14:10:00,76.1,60.8,29.78,SSE,165,12.0,12.0,59,0.00,,CLR,0.00,25.00,VWS V15.00,2013-02-07 20:10:00,
2013-02-07 14:12:00,76.3,60.5,29.78,SSE,155,5.0,13.0,58,0.00,,SCT100,0.00,25.00,VWS V14.01,2013-02-07 20:12:00,
2013-02-07 14:17:00,76.0,60.7,29.77,South,183,5.0,13.0,59,0.00,,SCT100,0.00,25.00,VWS V14.01,2013-02-07 20:17:00,
2013-02-07 14:20:00,75.8,60.5,29.77,SSW,205,4.0,13.0,59,0.00,,CLR,0.00,25.00,VWS V15.00,2013-02-07 20:20:00,
2013-02-07 14:22:00,75.8,60.5,29.77,SSW,201,2.0,9.0,59,0.00,,SCT100,0.00,25.00,VWS V14.01,2013-02-07 20:22:00,
2013-02-07 14:27:00,75.6,59.8,29.77,SSW,196,3.0,9.0,58,0.00,,SCT100,0.00,25.00,VWS V14.01,2013-02-07 20:27:00,
2013-02-07 14:30:00,75.4,60.1,29.77,South,190,1.0,10.0,59,0.00,,CLR,0.00,25.00,VWS V15.00,2013-02-07 20:30:00,
2013-02-07 14:32:00,75.1,60.3,29.77,SSW,194,1.0,4.0,60,0.00,,SCT100,0.00,25.00,VWS V14.01,2013-02-07 20:32:00,
2013-02-07 14:37:00,74.4,59.2,29.77,SSE,161,6.0,9.0,59,0.00,,FEW050,0.00,25.00,VWS V14.01,2013-02-07 20:37:00,
2013-02-07 14:40:00,74.5,58.8,29.77,SSW,202,6.0,9.0,58,0.00,,CLR,0.00,25.00,VWS V15.00,2013-02-07 20:40:00,
2013-02-07 14:42:00,74.9,58.2,29.77,WSW,243,4.0,11.0,56,0.00,,FEW050,0.00,25.00,VWS V14.01,2013-02-07 20:42:00,
2013-02-07 14:47:00,76.2,58.9,29.77,SSW,198,2.0,11.0,55,0.00,,FEW050,0.00,25.00,VWS V14.01,2013-02-07 20:47:00,
2013-02-07 14:50:00,76.7,57.8,29.77,SSW,205,3.0,11.0,52,0.00,,CLR,0.00,25.00,VWS V15.00,2013-02-07 20:50:00,
2013-02-07 14:52:00,77.3,57.8,29.77,SSE,165,3.0,6.0,51,0.00,,FEW050,0.00,25.00,VWS V14.01,2013-02-07 20:52:00,
2013-02-07 14:57:00,77.6,57.5,29.77,SSW,192,5.0,11.0,50,0.00,,FEW050,0.00,25.00,VWS V14.01,2013-02-07 20:57:00,
2013-02-07 15:00:00,77.7,57.6,29.77,SW,226,5.0,11.0,50,0.00,,CLR,0.00,25.00,VWS V15.00,2013-02-07 21:00:00,
2013-02-07 15:02:00,77.5,57.4,29.77,ESE,105,2.0,11.0,50,0.00,,FEW050,0.00,25.00,VWS V14.01,2013-02-07 21:02:00,
2013-02-07 15:07:00,77.2,57.1,29.77,SSW,213,9.0,11.0,50,0.00,,FEW050,0.00,25.00,VWS V14.01,2013-02-07 21:07:00,
2013-02-07 15:10:00,77.4,57.3,29.77,SW,232,4.0,12.0,50,0.00,,CLR,0.00,25.00,VWS V15.00,2013-02-07 21:10:00,
2013-02-07 15:12:00,77.7,57.0,29.77,SW,230,5.0,11.0,49,0.00,,FEW050,0.00,25.00,VWS V14.01,2013-02-07 21:12:00,
2013-02-07 15:17:00,78.3,56.4,29.77,WSW,237,10.0,11.0,47,0.00,,FEW050,0.00,25.00,VWS V14.01,2013-02-07 21:17:00,
2013-02-07 15:20:00,78.6,57.3,29.77,WSW,241,3.0,11.0,48,0.00,,CLR,0.00,25.00,VWS V15.00,2013-02-07 21:20:00,
2013-02-07 15:22:00,79.2,56.7,29.77,SSE,167,3.0,10.0,46,0.00,,FEW050,0.00,25.00,VWS V14.01,2013-02-07 21:22:00,
2013-02-07 15:27:00,79.3,52.2,29.77,West,274,8.0,15.0,39,0.00,,FEW050,0.00,25.00,VWS V14.01,2013-02-07 21:27:00,
2013-02-07 15:30:00,78.9,50.4,29.77,WNW,296,10.0,17.0,37,0.00,,CLR,0.00,25.00,VWS V15.00,2013-02-07 21:30:00,
2013-02-07 15:32:00,78.5,50.1,29.77,West,277,11.0,17.0,37,0.00,,FEW050,0.00,25.00,VWS V14.01,2013-02-07 21:32:00,
2013-02-07 15:37:00,77.8,48.7,29.77,SW,236,12.0,17.0,36,0.00,,SCT060,0.00,25.00,VWS V14.01,2013-02-07 21:37:00,
2013-02-07 15:40:00,77.5,48.5,29.77,West,261,17.0,20.0,36,0.00,,CLR,0.00,25.00,VWS V15.00,2013-02-07 21:40:00,
2013-02-07 15:42:00,77.2,47.5,29.77,WSW,250,15.0,19.0,35,0.00,,SCT060,0.00,25.00,VWS V14.01,2013-02-07 21:42:00,
2013-02-07 15:47:00,76.7,45.5,29.78,West,259,11.0,23.0,33,0.00,,SCT060,0.00,25.00,VWS V14.01,2013-02-07 21:47:00,
2013-02-07 15:50:00,76.6,46.2,29.78,SW,221,11.0,23.0,34,0.00,,CLR,0.00,25.00,VWS V15.00,2013-02-07 21:50:00,
2013-02-07 15:52:00,76.5,45.3,29.78,WNW,288,10.0,16.0,33,0.00,,SCT060,0.00,25.00,VWS V14.01,2013-02-07 21:52:00,
2013-02-07 15:57:00,76.1,44.9,29.78,West,261,8.0,18.0,33,0.00,,SCT060,0.00,25.00,VWS V14.01,2013-02-07 21:57:00,
2013-02-07 16:00:00,76.1,45.7,29.78,West,267,2.0,18.0,34,0.00,,CLR,0.00,25.00,VWS V15.00,2013-02-07 22:00:00,
2013-02-07 16:02:00,76.2,45.8,29.78,WSW,250,13.0,13.0,34,0.00,,SCT060,0.00,25.00,VWS V14.01,2013-02-07 22:02:00,
2013-02-07 16:07:00,75.9,44.8,29.78,WSW,247,9.0,15.0,33,0.00,,SCT060,0.00,25.00,VWS V14.01,2013-02-07 22:07:00,
2013-02-07 16:10:00,75.7,44.6,29.78,West,270,18.0,18.0,33,0.00,,CLR,0.00,25.00,VWS V15.00,2013-02-07 22:10:00,
2013-02-07 16:12:00,75.4,44.3,29.78,NW,309,6.0,18.0,33,0.00,,SCT060,0.00,25.00,VWS V14.01,2013-02-07 22:12:00,
2013-02-07 16:17:00,75.2,44.9,29.80,West,276,8.0,18.0,34,0.00,,SCT060,0.00,25.00,VWS V14.01,2013-02-07 22:17:00,
2013-02-07 16:20:00,75.1,44.8,29.80,NNE,20,6.0,18.0,34,0.00,,CLR,0.00,25.00,VWS V15.00,2013-02-07 22:20:00,
2013-02-07 16:22:00,75.0,45.5,29.80,NNW,348,6.0,14.0,35,0.00,,SCT060,0.00,25.00,VWS V14.01,2013-02-07 22:22:00,
2013-02-07 16:27:00,74.6,46.6,29.80,SSW,196,9.0,17.0,37,0.00,,SCT060,0.00,25.00,VWS V14.01,2013-02-07 22:27:00,
2013-02-07 16:30:00,74.5,47.2,29.80,WSW,253,10.0,17.0,38,0.00,,CLR,0.00,25.00,VWS V15.00,2013-02-07 22:30:00,
2013-02-07 16:32:00,74.3,47.8,29.80,WNW,290,10.0,15.0,39,0.00,,SCT060,0.00,25.00,VWS V14.01,2013-02-07 22:32:00,
2013-02-07 16:37:00,74.0,48.2,29.80,West,267,6.0,18.0,40,0.00,,FEW065,0.00,25.00,VWS V14.01,2013-02-07 22:37:00,
2013-02-07 16:40:00,73.8,48.7,29.80,WSW,250,12.0,18.0,41,0.00,,CLR,0.00,25.00,VWS V15.00,2013-02-07 22:40:00,
2013-02-07 16:42:00,73.8,49.3,29.80,NW,315,10.0,12.0,42,0.00,,FEW065,0.00,25.00,VWS V14.01,2013-02-07 22:42:00,
2013-02-07 16:47:00,73.6,49.1,29.81,NW,313,5.0,15.0,42,0.00,,FEW065,0.00,25.00,VWS V14.01,2013-02-07 22:47:00,
2013-02-07 16:50:00,73.5,49.7,29.81,SW,233,2.0,15.0,43,0.00,,CLR,0.00,25.00,VWS V15.00,2013-02-07 22:50:00,
2013-02-07 16:52:00,73.4,49.6,29.81,West,265,5.0,14.0,43,0.00,,FEW065,0.00,25.00,VWS V14.01,2013-02-07 22:52:00,
2013-02-07 16:57:00,73.3,50.7,29.81,WSW,257,2.0,14.0,45,0.00,,FEW065,0.00,25.00,VWS V14.01,2013-02-07 22:57:00,
2013-02-07 17:02:00,73.1,51.1,29.82,WSW,256,10.0,14.0,46,0.00,,FEW065,0.00,25.00,VWS V14.01,2013-02-07 23:02:00,
2013-02-07 17:07:00,72.9,51.5,29.82,West,259,10.0,14.0,47,0.00,,FEW065,0.00,25.00,VWS V14.01,2013-02-07 23:07:00,
2013-02-07 17:10:00,72.8,51.4,29.82,West,277,8.0,14.0,47,0.00,,CLR,0.00,25.00,VWS V15.00,2013-02-07 23:10:00,
2013-02-07 17:12:00,72.9,52.1,29.82,West,275,4.0,11.0,48,0.00,,FEW065,0.00,25.00,VWS V14.01,2013-02-07 23:12:00,
2013-02-07 17:17:00,72.6,50.7,29.83,WSW,256,5.0,15.0,46,0.00,,FEW065,0.00,25.00,VWS V14.01,2013-02-07 23:17:00,
2013-02-07 17:20:00,72.6,50.7,29.83,WNW,283,6.0,15.0,46,0.00,,CLR,0.00,25.00,VWS V15.00,2013-02-07 23:20:00,
2013-02-07 17:22:00,72.5,49.4,29.83,WNW,292,5.0,13.0,44,0.00,,FEW065,0.00,25.00,VWS V14.01,2013-02-07 23:22:00,
2013-02-07 17:27:00,72.3,49.2,29.83,WNW,292,10.0,15.0,44,0.00,,FEW065,0.00,25.00,VWS V14.01,2013-02-07 23:27:00,
2013-02-07 17:30:00,72.2,49.1,29.83,West,260,5.0,15.0,44,0.00,,CLR,0.00,25.00,VWS V15.00,2013-02-07 23:30:00,
2013-02-07 17:32:00,71.9,50.0,29.83,West,280,5.0,19.0,46,0.00,,FEW065,0.00,25.00,VWS V14.01,2013-02-07 23:32:00,
2013-02-07 17:37:00,71.6,50.3,29.83,WNW,290,9.0,19.0,47,0.00,,FEW060,0.00,25.00,VWS V14.01,2013-02-07 23:37:00,
2013-02-07 17:40:00,71.4,50.1,29.83,West,260,7.0,19.0,47,0.00,,CLR,0.00,25.00,VWS V15.00,2013-02-07 23:40:00,
2013-02-07 17:42:00,71.1,49.9,29.83,WSW,246,8.0,14.0,47,0.00,,FEW060,0.00,25.00,VWS V14.01,2013-02-07 23:42:00,
2013-02-07 17:47:00,70.6,48.8,29.84,WSW,249,11.0,14.0,46,0.00,,FEW060,0.00,25.00,VWS V14.01,2013-02-07 23:47:00,
2013-02-07 17:50:00,70.4,48.7,29.84,SW,234,11.0,14.0,46,0.00,,CLR,0.00,25.00,VWS V15.00,2013-02-07 23:50:00,
2013-02-07 17:52:00,70.2,47.9,29.84,West,260,3.0,14.0,45,0.00,,FEW060,0.00,25.00,VWS V14.01,2013-02-07 23:52:00,
2013-02-07 17:57:00,69.9,47.6,29.84,WNW,283,6.0,14.0,45,0.00,,FEW060,0.00,25.00,VWS V14.01,2013-02-07 23:57:00,
2013-02-07 18:00:00,69.8,48.1,29.85,West,259,5.0,14.0,46,0.00,,CLR,0.00,25.00,VWS V15.00,2013-02-08 00:00:00,
2013-02-07 18:02:00,69.7,48.0,29.85,West,273,10.0,10.0,46,0.00,,FEW060,0.00,25.00,VWS V14.01,2013-02-08 00:02:00,
2013-02-07 18:07:00,69.5,47.8,29.85,West,267,3.0,12.0,46,0.00,,FEW060,0.00,25.00,VWS V14.01,2013-02-08 00:07:00,
2013-02-07 18:10:00,69.4,48.3,29.85,West,276,4.0,12.0,47,0.00,,CLR,0.00,25.00,VWS V15.00,2013-02-08 00:10:00,
2013-02-07 18:13:00,69.2,48.7,29.85,West,276,8.0,8.0,48,0.00,,SCT055,0.00,25.00,VWS V14.01,2013-02-08 00:13:00,
2013-02-07 18:18:00,68.7,48.2,29.86,West,269,1.0,8.0,48,0.00,,SCT055,0.00,25.00,VWS V14.01,2013-02-08 00:18:00,
2013-02-07 18:20:00,68.6,48.2,29.86,NW,314,3.0,8.0,48,0.00,,CLR,0.00,25.00,VWS V15.00,2013-02-08 00:20:00,
2013-02-07 18:23:00,68.5,48.1,29.86,NNW,327,2.0,5.0,48,0.00,,SCT055,0.00,25.00,VWS V14.01,2013-02-08 00:23:00,
2013-02-07 18:28:00,68.3,48.4,29.86,WNW,294,2.0,7.0,49,0.00,,SCT055,0.00,25.00,VWS V14.01,2013-02-08 00:28:00,
2013-02-07 18:30:00,68.3,48.4,29.86,NNW,333,1.0,7.0,49,0.00,,CLR,0.00,25.00,VWS V15.00,2013-02-08 00:30:00,
2013-02-07 18:33:00,68.1,48.8,29.86,WNW,283,3.0,9.0,50,0.00,,SCT055,0.00,25.00,VWS V14.01,2013-02-08 00:33:00,
2013-02-07 18:38:00,67.9,49.1,29.86,WSW,256,4.0,9.0,51,0.00,,SCT055,0.00,25.00,VWS V14.01,2013-02-08 00:38:00,
2013-02-07 18:40:00,67.8,49.0,29.86,NW,314,2.0,9.0,51,0.00,,CLR,0.00,25.00,VWS V15.00,2013-02-08 00:40:00,
2013-02-07 18:43:00,67.8,49.0,29.86,WNW,296,3.0,13.0,51,0.00,,SCT055,0.00,25.00,VWS V14.01,2013-02-08 00:43:00,
2013-02-07 18:48:00,67.8,52.0,29.86,NNW,332,11.0,14.0,57,0.00,,SCT055,0.00,25.00,VWS V14.01,2013-02-08 00:48:00,
2013-02-07 18:50:00,67.7,52.4,29.86,NW,324,8.0,14.0,58,0.00,,CLR,0.00,25.00,VWS V15.00,2013-02-08 00:50:00,
2013-02-07 18:53:00,67.5,53.6,29.86,NNW,346,11.0,12.0,61,0.00,,SCT055,0.00,25.00,VWS V14.01,2013-02-08 00:53:00,
2013-02-07 18:58:00,66.9,54.3,29.86,NW,317,7.0,13.0,64,0.00,,SCT055,0.00,25.00,VWS V14.01,2013-02-08 00:58:00,
2013-02-07 19:00:00,66.7,54.6,29.88,NNW,331,11.0,15.0,65,0.00,,CLR,0.00,25.00,VWS V15.00,2013-02-08 01:00:00,
2013-02-07 19:03:00,66.3,55.0,29.88,NNW,334,14.0,18.0,67,0.00,,SCT055,0.00,25.00,VWS V14.01,2013-02-08 01:03:00,
2013-02-07 19:08:00,65.5,54.7,29.88,WNW,287,10.0,19.0,68,0.00,,SCT055,0.00,25.00,VWS V14.01,2013-02-08 01:08:00,
2013-02-07 19:10:00,65.3,54.5,29.88,WNW,297,14.0,19.0,68,0.00,,CLR,0.00,25.00,VWS V15.00,2013-02-08 01:10:00,
2013-02-07 19:13:00,64.8,54.4,29.88,NNW,330,16.0,22.0,69,0.00,,SCT055,0.00,25.00,VWS V14.01,2013-02-08 01:13:00,
2013-02-07 19:18:00,64.0,54.0,29.89,WNW,294,11.0,22.0,70,0.00,,SCT055,0.00,25.00,VWS V14.01,2013-02-08 01:18:00,
2013-02-07 19:20:00,63.8,53.8,29.89,WNW,292,14.0,22.0,70,0.00,,CLR,0.00,25.00,VWS V15.00,2013-02-08 01:20:00,
2013-02-07 19:23:00,63.4,53.8,29.89,NNE,16,9.0,18.0,71,0.00,,SCT055,0.00,25.00,VWS V14.01,2013-02-08 01:23:00,
2013-02-07 19:28:00,63.0,53.8,29.89,North,349,10.0,22.0,72,0.00,,SCT055,0.00,25.00,VWS V14.01,2013-02-08 01:28:00,
2013-02-07 19:30:00,62.8,53.7,29.90,West,261,5.0,22.0,72,0.00,,CLR,0.00,25.00,VWS V15.00,2013-02-08 01:30:00,
2013-02-07 19:34:00,62.5,53.4,29.90,NNW,327,10.0,24.0,72,0.00,,SCT055,0.00,25.00,VWS V14.01,2013-02-08 01:34:00,
2013-02-07 19:39:00,61.5,52.4,29.90,NW,313,11.0,24.0,72,0.00,,SCT050,0.00,25.00,VWS V14.01,2013-02-08 01:39:00,
2013-02-07 19:40:00,61.4,52.7,29.90,NW,313,9.0,24.0,73,0.00,,CLR,0.00,25.00,VWS V15.00,2013-02-08 01:40:00,
2013-02-07 19:44:00,60.7,52.0,29.92,NW,317,11.0,23.0,73,0.00,,SCT050,0.00,25.00,VWS V14.01,2013-02-08 01:44:00,
2013-02-07 19:49:00,60.1,51.8,29.92,NNW,327,12.0,23.0,74,0.00,,SCT050,0.00,25.00,VWS V14.01,2013-02-08 01:49:00,
2013-02-07 19:50:00,60.1,51.8,29.92,NNE,12,13.0,23.0,74,0.00,,CLR,0.00,25.00,VWS V15.00,2013-02-08 01:50:00,
2013-02-07 19:54:00,59.7,51.8,29.92,NE,35,7.0,20.0,75,0.00,,SCT050,0.00,25.00,VWS V14.01,2013-02-08 01:54:00,
2013-02-07 19:59:00,59.4,51.5,29.93,WNW,295,6.0,20.0,75,0.00,,SCT050,0.00,25.00,VWS V14.01,2013-02-08 01:59:00,
2013-02-07 20:00:00,59.4,51.8,29.93,West,279,6.0,20.0,76,0.00,,CLR,0.00,25.00,VWS V15.00,2013-02-08 02:00:00,
2013-02-07 20:04:00,59.2,51.7,29.93,WNW,298,13.0,19.0,76,0.00,,SCT050,0.00,25.00,VWS V14.01,2013-02-08 02:04:00,
2013-02-07 20:09:00,59.1,51.5,29.93,WNW,290,5.0,20.0,76,0.00,,SCT050,0.00,25.00,VWS V14.01,2013-02-08 02:09:00,
2013-02-07 20:10:00,59.0,51.5,29.93,NNW,340,12.0,20.0,76,0.00,,CLR,0.00,25.00,VWS V15.00,2013-02-08 02:10:00,
2013-02-07 20:14:00,58.9,51.4,29.94,NW,311,21.0,22.0,76,0.00,,SCT050,0.00,25.00,VWS V14.01,2013-02-08 02:14:00,
2013-02-07 20:19:00,58.8,51.3,29.94,ENE,76,5.0,22.0,76,0.00,,SCT050,0.00,25.00,VWS V14.01,2013-02-08 02:19:00,
2013-02-07 20:20:00,58.8,51.3,29.94,NW,311,12.0,22.0,76,0.00,,CLR,0.00,25.00,VWS V15.00,2013-02-08 02:20:00,
2013-02-07 20:24:00,58.7,51.5,29.94,NW,319,5.0,19.0,77,0.00,,SCT050,0.00,25.00,VWS V14.01,2013-02-08 02:24:00,
2013-02-07 20:29:00,58.6,51.4,29.95,NNE,12,4.0,19.0,77,0.00,,SCT050,0.00,25.00,VWS V14.01,2013-02-08 02:29:00,
2013-02-07 20:30:00,58.6,51.4,29.95,NW,326,5.0,19.0,77,0.00,,CLR,0.00,25.00,VWS V15.00,2013-02-08 02:30:00,
2013-02-07 20:34:00,58.5,51.3,29.95,North,360,12.0,17.0,77,0.00,,SCT023,0.00,25.00,VWS V14.01,2013-02-08 02:34:00,
2013-02-07 20:39:00,58.4,51.2,29.95,NW,324,7.0,17.0,77,0.00,,SCT023,0.00,25.00,VWS V14.01,2013-02-08 02:39:00,
2013-02-07 20:40:00,58.4,51.2,29.95,NNE,12,9.0,17.0,77,0.00,,CLR,0.00,25.00,VWS V15.00,2013-02-08 02:40:00,
2013-02-07 20:44:00,58.3,51.5,29.96,NW,313,11.0,13.0,78,0.00,,SCT023,0.00,25.00,VWS V14.01,2013-02-08 02:44:00,
2013-02-07 20:49:00,58.3,51.5,29.96,NNE,28,5.0,16.0,78,0.00,,SCT023,0.00,25.00,VWS V14.01,2013-02-08 02:49:00,
2013-02-07 20:50:00,58.3,51.5,29.96,NW,317,7.0,16.0,78,0.00,,CLR,0.00,25.00,VWS V15.00,2013-02-08 02:50:00,
2013-02-07 20:54:00,58.2,51.4,29.96,NW,320,9.0,12.0,78,0.00,,SCT023,0.00,25.00,VWS V14.01,2013-02-08 02:54:00,
2013-02-07 20:59:00,58.1,51.3,29.97,NW,321,5.0,15.0,78,0.00,,SCT023,0.00,25.00,VWS V14.01,2013-02-08 02:59:00,
2013-02-07 21:00:00,58.1,51.3,29.97,NW,311,5.0,15.0,78,0.00,,CLR,0.00,25.00,VWS V15.00,2013-02-08 03:00:00,
2013-02-07 21:04:00,58.0,50.8,29.97,NW,305,5.0,15.0,77,0.00,,SCT023,0.00,25.00,VWS V14.01,2013-02-08 03:04:00,
2013-02-07 21:09:00,58.0,50.8,29.97,NW,326,6.0,15.0,77,0.00,,SCT023,0.00,25.00,VWS V14.01,2013-02-08 03:09:00,
2013-02-07 21:10:00,57.9,50.7,29.97,NNW,331,12.0,15.0,77,0.00,,CLR,0.00,25.00,VWS V15.00,2013-02-08 03:10:00,
2013-02-07 21:14:00,57.8,50.7,29.98,NNW,344,17.0,17.0,77,0.00,,SCT023,0.00,25.00,VWS V14.01,2013-02-08 03:14:00,
2013-02-07 21:19:00,57.6,50.1,29.98,West,277,4.0,17.0,76,0.00,,SCT023,0.00,25.00,VWS V14.01,2013-02-08 03:19:00,
2013-02-07 21:20:00,57.6,50.1,29.98,NNW,333,3.0,17.0,76,0.00,,CLR,0.00,25.00,VWS V15.00,2013-02-08 03:20:00,
2013-02-07 21:24:00,57.5,50.0,29.98,NW,321,3.0,14.0,76,0.00,,SCT023,0.00,25.00,VWS V14.01,2013-02-08 03:24:00,
2013-02-07 21:29:00,57.3,49.8,30.00,NW,310,6.0,15.0,76,0.00,,SCT023,0.00,25.00,VWS V14.01,2013-02-08 03:29:00,
2013-02-07 21:30:00,57.3,49.8,30.00,WNW,296,3.0,15.0,76,0.00,,CLR,0.00,25.00,VWS V15.00,2013-02-08 03:30:00,
2013-02-07 21:34:00,57.2,49.7,30.00,NW,321,9.0,14.0,76,0.00,,FEW026,0.00,25.00,VWS V14.01,2013-02-08 03:34:00,
2013-02-07 21:39:00,57.1,49.6,30.00,NW,306,3.0,14.0,76,0.00,,FEW026,0.00,25.00,VWS V14.01,2013-02-08 03:39:00,
2013-02-07 21:40:00,57.1,49.6,30.00,NW,313,11.0,14.0,76,0.00,,CLR,0.00,25.00,VWS V15.00,2013-02-08 03:40:00,
2013-02-07 21:44:00,56.9,49.4,30.01,NNW,340,12.0,17.0,76,0.00,,FEW026,0.00,25.00,VWS V14.01,2013-02-08 03:44:00,
2013-02-07 21:49:00,56.8,49.7,30.01,NW,320,7.0,17.0,77,0.00,,FEW026,0.00,25.00,VWS V14.01,2013-02-08 03:49:00,
2013-02-07 21:50:00,56.8,49.7,30.01,WNW,295,11.0,17.0,77,0.00,,CLR,0.00,25.00,VWS V15.00,2013-02-08 03:50:00,
2013-02-07 21:54:00,56.6,49.5,30.01,NW,318,9.0,13.0,77,0.00,,FEW026,0.00,25.00,VWS V14.01,2013-02-08 03:54:00,
2013-02-07 21:59:00,56.3,49.5,30.02,NW,309,5.0,13.0,78,0.00,,FEW026,0.00,25.00,VWS V14.01,2013-02-08 03:59:00,
2013-02-07 22:00:00,56.3,49.5,30.02,NNW,331,9.0,13.0,78,0.00,,CLR,0.00,25.00,VWS V15.00,2013-02-08 04:00:00,
2013-02-07 22:04:00,56.1,49.3,30.02,NNW,333,6.0,16.0,78,0.00,,FEW026,0.00,25.00,VWS V14.01,2013-02-08 04:04:00,
2013-02-07 22:09:00,55.9,49.5,30.02,NNE,31,6.0,16.0,79,0.00,,FEW026,0.00,25.00,VWS V14.01,2013-02-08 04:09:00,
2013-02-07 22:10:00,55.9,49.5,30.02,NNW,337,9.0,16.0,79,0.00,,CLR,0.00,25.00,VWS V15.00,2013-02-08 04:10:00,
2013-02-07 22:14:00,55.8,49.7,30.02,NW,319,9.0,16.0,80,0.00,,FEW026,0.00,25.00,VWS V14.01,2013-02-08 04:14:00,
2013-02-07 22:19:00,55.9,49.8,30.02,WNW,283,7.0,16.0,80,0.00,,FEW026,0.00,25.00,VWS V14.01,2013-02-08 04:19:00,
2013-02-07 22:20:00,55.9,49.8,30.02,NW,314,6.0,16.0,80,0.00,,CLR,0.00,25.00,VWS V15.00,2013-02-08 04:20:00,
2013-02-07 22:24:00,56.0,49.6,30.02,WNW,297,2.0,15.0,79,0.00,,FEW026,0.00,25.00,VWS V14.01,2013-02-08 04:24:00,
2013-02-07 22:29:00,56.2,49.8,30.02,NNW,337,3.0,15.0,79,0.00,,FEW026,0.00,25.00,VWS V14.01,2013-02-08 04:29:00,
2013-02-07 22:30:00,56.2,49.8,30.02,NW,311,10.0,15.0,79,0.00,,CLR,0.00,25.00,VWS V15.00,2013-02-08 04:30:00,
2013-02-07 22:34:00,56.3,49.9,30.02,WNW,302,2.0,13.0,79,0.00,,BKN026,0.00,25.00,VWS V14.01,2013-02-08 04:34:00,
2013-02-07 22:39:00,56.3,49.9,30.02,WNW,284,5.0,13.0,79,0.00,,BKN026,0.00,25.00,VWS V14.01,2013-02-08 04:39:00,
2013-02-07 22:40:00,56.3,49.9,30.02,NW,306,1.0,13.0,79,0.00,,CLR,0.00,25.00,VWS V15.00,2013-02-08 04:40:00,
2013-02-07 22:44:00,56.3,49.9,30.03,NE,34,6.0,12.0,79,0.00,,BKN026,0.00,25.00,VWS V14.01,2013-02-08 04:44:00,
2013-02-07 22:49:00,56.4,49.6,30.03,NNW,337,6.0,15.0,78,0.00,,BKN026,0.00,25.00,VWS V14.01,2013-02-08 04:49:00,
2013-02-07 22:50:00,56.4,49.6,30.03,WNW,290,11.0,15.0,78,0.00,,CLR,0.00,25.00,VWS V15.00,2013-02-08 04:50:00,
2013-02-07 22:54:00,56.4,49.6,30.03,NW,321,7.0,19.0,78,0.00,,BKN026,0.00,25.00,VWS V14.01,2013-02-08 04:54:00,
2013-02-07 22:59:00,56.4,49.6,30.04,WNW,303,2.0,19.0,78,0.00,,BKN026,0.00,25.00,VWS V14.01,2013-02-08 04:59:00,
2013-02-07 23:00:00,56.4,49.6,30.04,NNW,339,3.0,3.0,78,0.00,,BKN026,0.00,25.00,VWS V14.01,2013-02-08 05:00:00,
2013-02-07 23:01:00,56.4,49.6,30.04,WNW,300,3.0,6.0,78,0.00,,BKN026,0.00,25.00,VWS V14.01,2013-02-08 05:01:00,
2013-02-07 23:06:00,56.3,49.5,30.04,WNW,303,10.0,15.0,78,0.00,,BKN026,0.00,25.00,VWS V14.01,2013-02-08 05:06:00,
2013-02-07 23:10:00,56.3,49.5,30.04,NNW,333,6.0,15.0,78,0.00,,CLR,0.00,25.00,VWS V15.00,2013-02-08 05:10:00,
2013-02-07 23:11:00,56.3,49.2,30.04,NW,318,12.0,12.0,77,0.00,,BKN026,0.00,25.00,VWS V14.01,2013-02-08 05:11:00,
2013-02-07 23:16:00,56.3,49.2,30.05,NNE,16,11.0,13.0,77,0.00,,BKN026,0.00,25.00,VWS V14.01,2013-02-08 05:16:00,
2013-02-07 23:20:00,56.3,49.2,30.05,North,360,8.0,15.0,77,0.00,,CLR,0.00,25.00,VWS V15.00,2013-02-08 05:20:00,
2013-02-07 23:21:00,56.3,49.2,30.05,NW,323,6.0,12.0,77,0.00,,BKN026,0.00,25.00,VWS V14.01,2013-02-08 05:21:00,
2013-02-07 23:26:00,56.3,48.8,30.05,NNW,331,10.0,17.0,76,0.00,,BKN026,0.00,25.00,VWS V14.01,2013-02-08 05:26:00,
2013-02-07 23:30:00,56.2,48.8,30.05,WNW,296,4.0,17.0,76,0.00,,CLR,0.00,25.00,VWS V15.00,2013-02-08 05:30:00,
2013-02-07 23:31:00,56.2,48.8,30.05,WNW,296,5.0,11.0,76,0.00,,BKN026,0.00,25.00,VWS V14.01,2013-02-08 05:31:00,
2013-02-07 23:36:00,56.2,48.8,30.05,NW,317,5.0,13.0,76,0.00,,OVC026,0.00,25.00,VWS V14.01,2013-02-08 05:36:00,
2013-02-07 23:40:00,56.1,48.3,30.05,NNE,16,12.0,13.0,75,0.00,,CLR,0.00,25.00,VWS V15.00,2013-02-08 05:40:00,
2013-02-07 23:41:00,56.1,48.3,30.05,NNE,19,4.0,12.0,75,0.00,,OVC026,0.00,25.00,VWS V14.01,2013-02-08 05:41:00,
2013-02-07 23:46:00,56.1,48.7,30.06,WNW,300,12.0,12.0,76,0.00,,OVC026,0.00,25.00,VWS V14.01,2013-02-08 05:46:00,
2013-02-07 23:50:00,56.0,48.5,30.06,NNW,331,9.0,14.0,76,0.00,,CLR,0.00,25.00,VWS V15.00,2013-02-08 05:50:00,
2013-02-07 23:51:00,56.0,48.5,30.06,NW,324,6.0,10.0,76,0.00,,OVC026,0.00,25.00,VWS V14.01,2013-02-08 05:51:00,
2013-02-07 23:56:00,55.9,48.1,30.06,NNW,327,16.0,16.0,75,0.00,,OVC026,0.00,25.00,VWS V14.01,2013-02-08 05:56:00,